Theta_e
342 342 342 341 341 340 340 335 330 322 322 329 329 331 325 321 319 313 311 314 312 311 308 306 305 305 305 306 306 307 307 307 308 309 310 311 313 313
339 338 341 341 340 342 338 340 336 330 324 330 330 329 324 320 320 313 311 313 312 310 308 305 304 304 304 304 304 305 305 306 306 307 308 309 310 310
339 339 338 340 338 338 341 340 337 333 327 329 331 330 322 318 318 314 312 309 309 310 308 304 304 304 303 303 302 303 303 304 305 306 306 307 308 308
334 334 336 338 338 340 338 336 337 335 330 324 329 330 321 320 317 311 310 311 309 311 308 304 304 303 303 302 301 301 301 302 303 303 304 305 306 307
332 333 335 334 335 336 338 337 338 337 333 327 326 328 324 320 314 313 312 311 311 312 309 306 305 303 302 301 301 300 300 300 301 301 302 302 303 304
329 332 335 334 334 335 337 338 338 335 333 326 326 323 323 320 317 314 315 311 307 309 310 305 305 303 302 300 300 300 300 300 300 300 300 300 300 301
330 331 331 333 330 331 335 337 338 334 327 325 323 322 321 319 316 317 314 310 307 308 308 301 299 298 297 299 298 300 300 301 300 300 299 299 299 300
323 324 328 328 328 320 320 324 333 332 327 325 323 320 320 320 319 317 315 313 306 313 310 307 302 299 295 294 298 299 299 300 300 300 299 299 299 299
323 322 322 325 325 331 320 316 317 318 325 327 323 322 320 321 320 317 316 315 312 312 312 307 303 295 294 296 299 299 298 298 299 299 299 299 298 298
323 323 323 324 328 329 331 331 331 330 327 328 326 324 324 324 322 321 319 317 317 315 314 303 301 296 297 296 299 298 298 297 298 298 298 298 298 298
322 322 322 323 317 311 327 328 329 331 317 314 315 312 309 312 319 324 319 314 311 311 313 306 306 299 297 296 296 300 298 297 297 298 298 297 297 299
320 321 313 318 310 308 323 328 327 328 323 321 319 312 313 316 313 322 319 312 309 308 313 305 304 301 297 302 299 296 296 299 298 297 297 296 296 294
317 317 320 308 305 305 306 329 327 325 318 323 321 320 321 322 321 322 318 316 311 308 312 309 304 300 300 298 300 302 302 296 297 294 296 296 295 294
317 318 319 305 300 301 304 310 305 312 321 320 318 318 319 319 320 320 319 318 315 312 311 312 305 303 298 297 297 300 300 301 300 297 296 295 296 295
316 313 307 301 298 301 300 302 305 319 318 317 317 316 318 317 314 313 314 314 313 312 313 312 308 306 302 300 297 298 298 300 301 295 295 292 290 291
309 312 311 308 307 312 304 306 318 318 317 317 316 315 315 313 309 309 308 308 307 306 310 309 312 305 304 303 301 299 299 297 300 297 293 293 290 290
311 315 315 315 314 309 309 312 316 316 316 315 314 313 313 311 308 308 307 305 303 302 303 307 305 303 302 303 299 300 299 299 300 298 294 291 290 288
315 315 313 312 311 308 309 311 313 312 314 313 312 311 310 308 306 306 304 302 301 302 303 303 301 299 298 299 300 299 299 298 299 299 297 292 288 288
312 312 310 310 311 309 310 311 311 313 313 311 310 309 308 307 303 303 302 302 302 302 303 303 300 298 295 293 295 294 299 299 299 297 298 294 292 289
305 309 309 310 310 310 311 312 311 312 312 310 309 307 306 304 302 301 301 302 301 300 300 301 300 299 297 295 295 290 291 300 299 296 294 290 289 293
304 306 310 309 310 311 311 312 312 312 311 310 307 307 305 303 301 302 302 296 297 300 299 299 301 294 301 298 293 292 290 294 296 297 296 290 289 288
307 305 310 310 310 311 312 312 312 310 310 307 306 305 304 303 302 302 302 299 300 300 300 301 300 299 297 295 293 291 290 290 294 295 294 295 295 290
307 307 311 311 311 312 312 312 310 309 308 307 306 305 303 302 302 302 301 301 300 299 300 299 299 299 297 295 292 291 291 290 290 289 288 293 295 296
Wind_Speed
6 6 7 7 7 6 6 6 4 2 4 6 3 6 8 11 16 12 11 18 16 12 10 9 10 13 14 16 16 17 17 18 18 18 18 19 19 19
6 7 6 6 6 5 5 5 5 6 4 3 2 8 10 9 16 12 12 17 16 13 11 9 8 12 13 15 15 16 16 17 18 18 19 20 20 20
6 7 9 6 5 6 4 5 7 6 7 3 3 10 11 13 13 10 13 9 8 14 11 9 8 11 12 14 14 14 15 16 17 18 19 20 21 20
10 9 9 6 7 6 6 7 7 5 7 8 7 9 11 13 11 15 11 10 8 13 13 10 8 11 12 13 13 12 13 14 15 16 17 19 22 23
8 9 10 7 8 5 5 8 7 5 5 5 6 7 10 11 12 11 11 12 9 17 13 10 10 12 12 13 12 10 10 11 12 11 14 14 17 19
7 8 9 8 10 7 7 8 8 7 4 8 7 9 10 11 10 11 8 11 10 9 11 10 11 12 13 13 14 11 9 9 9 9 9 10 11 14
6 8 9 9 15 11 7 7 9 7 2 9 9 8 9 12 13 9 8 10 8 9 8 8 6 5 4 7 7 10 10 9 9 8 7 7 9 9
6 8 9 11 11 14 13 13 11 9 8 8 9 12 13 12 9 11 9 10 6 8 10 8 9 4 4 4 1 5 9 10 10 10 8 5 8 9
7 8 10 11 10 10 10 10 9 13 16 13 15 15 14 16 13 12 11 11 8 11 8 5 10 6 5 4 6 2 5 9 12 13 11 7 1 9
9 9 11 12 12 9 8 6 6 7 12 10 13 11 11 13 17 14 14 11 6 11 7 5 8 5 5 4 10 7 3 5 9 13 17 15 2 5
10 11 13 14 15 14 10 11 8 6 2 5 11 12 11 16 12 9 11 10 8 8 4 5 5 5 5 5 5 10 7 1 5 9 16 18 15 5
9 11 15 17 15 15 12 12 10 9 8 6 5 8 14 14 15 11 10 11 10 5 6 5 6 5 3 5 4 5 4 5 4 6 16 20 16 6
10 10 10 15 20 18 16 11 12 10 10 11 9 9 9 11 11 7 10 10 9 4 8 5 7 4 3 5 3 4 5 4 4 3 12 16 21 17
11 9 9 11 12 15 12 12 15 12 8 8 9 9 10 10 9 7 7 4 6 9 11 7 5 5 4 4 5 3 2 3 6 4 4 3 8 15
15 14 13 8 8 5 6 12 17 9 10 9 10 9 9 8 6 6 7 9 7 12 10 6 5 6 7 5 5 5 4 2 5 5 5 6 5 6
16 13 13 11 10 5 6 10 10 10 12 12 11 9 9 9 6 5 7 8 9 5 6 5 5 9 4 7 8 4 5 4 4 6 5 5 5 6
12 9 6 7 7 5 6 10 9 9 10 10 10 12 11 10 10 6 7 7 7 8 4 4 9 10 7 7 6 5 4 3 5 6 8 7 5 4
3 6 8 9 9 9 10 10 9 12 11 11 12 13 12 11 10 8 8 9 9 8 7 6 7 8 5 6 11 6 4 3 3 5 8 8 4 2
7 6 7 8 10 10 11 11 12 12 14 12 13 13 12 11 13 11 10 9 9 9 8 7 7 9 9 6 3 14 4 4 3 4 5 5 5 4
6 5 7 9 9 10 11 11 11 11 13 13 14 14 13 13 11 12 12 11 11 9 9 7 8 8 9 7 4 2 10 3 2 5 5 4 5 8
8 8 7 9 9 10 11 11 13 13 14 14 14 14 13 13 12 12 12 13 11 10 11 10 9 9 6 9 6 3 3 11 6 3 5 6 5 4
10 9 8 9 10 10 11 11 12 12 13 13 13 13 13 13 13 13 13 12 12 11 9 6 8 10 8 9 9 6 4 2 7 13 11 4 4 5
11 10 10 11 11 12 12 12 12 13 14 14 14 14 13 14 13 12 12 13 12 11 10 10 9 8 9 9 10 7 7 4 3 4 3 7 9 12
Wind_Direction
239 235 244 257 259 255 223 222 210 180 207 187 164 166 140 140 155 144 139 141 132 120 100 73 53 46 36 28 20 21 24 26 25 27 26 24 19 17
255 258 243 249 261 250 248 244 226 215 191 193 180 156 139 140 160 141 141 140 138 131 113 94 68 56 42 33 23 22 27 28 28 31 31 27 22 20
245 253 262 252 249 259 222 247 250 202 205 221 134 141 148 151 157 141 143 139 148 141 130 119 91 70 54 40 26 25 30 28 28 30 35 33 29 26
250 250 256 260 253 233 247 240 240 224 207 179 182 164 153 166 144 148 154 152 156 158 147 138 113 83 65 49 32 26 29 26 24 28 36 36 35 33
280 265 240 243 256 241 219 245 241 236 204 147 166 154 148 142 150 155 168 151 159 162 151 148 131 95 74 53 40 31 27 23 15 14 24 30 31 32
281 281 267 246 249 243 234 234 238 233 206 153 167 165 151 159 158 161 177 149 144 169 162 151 154 119 94 64 48 42 30 18 6 6 5 8 13 24
274 285 277 254 240 229 225 220 233 234 154 156 160 170 165 168 174 168 170 141 171 170 162 151 145 144 100 74 50 24 14 7 4 7 20 7 12 14
258 277 282 285 286 253 236 216 204 231 168 160 166 175 191 179 167 170 171 163 175 179 161 173 159 162 139 111 129 337 355 2 357 12 30 47 4 31
238 251 266 267 265 274 228 225 233 208 173 183 182 188 180 181 164 166 190 185 178 155 163 155 140 141 135 151 189 246 344 357 356 15 37 59 68 34
239 247 255 263 263 259 278 244 207 212 197 186 192 182 178 171 171 179 185 174 129 162 155 138 143 140 150 166 196 205 251 1 351 13 26 30 54 64
241 244 248 253 252 235 240 248 239 235 182 261 166 162 159 158 172 178 175 159 148 165 154 118 144 131 166 174 196 205 205 214 19 20 42 30 18 60
245 248 245 242 241 236 225 232 230 195 172 150 135 139 151 170 182 218 167 158 151 145 190 120 134 137 141 166 179 174 181 205 97 43 64 56 30 27
246 252 249 244 231 227 216 225 213 178 194 184 173 157 163 176 183 212 174 167 165 142 162 117 154 163 133 143 136 164 173 161 146 117 74 67 63 44
243 249 259 278 227 202 204 226 165 162 166 179 172 171 173 175 192 149 167 133 164 152 157 131 147 150 141 132 140 129 108 113 100 88 83 115 62 66
244 241 239 247 237 232 199 168 152 163 167 169 170 160 164 138 94 80 82 81 101 136 139 124 151 139 150 148 140 144 132 128 108 102 78 63 39 34
239 239 235 230 195 190 130 170 172 171 169 171 161 146 137 118 111 121 118 119 116 98 95 136 159 141 152 137 137 143 151 141 120 120 104 83 61 41
224 218 210 216 209 171 169 182 174 164 167 156 150 149 146 141 129 142 149 131 140 144 127 87 69 81 69 117 110 116 133 139 137 138 112 94 59 74
216 188 198 208 203 177 179 177 173 160 162 158 155 152 152 145 141 158 167 145 150 151 147 135 127 112 95 65 38 132 129 135 142 152 131 123 112 88
262 210 194 194 190 175 176 177 175 170 163 160 157 154 148 152 155 164 166 156 158 153 161 148 150 146 141 136 144 52 143 164 145 95 117 112 123 158
231 261 210 185 189 178 175 175 167 166 168 163 163 156 153 151 163 174 170 161 159 159 158 157 162 164 160 156 131 84 5 105 131 136 107 69 64 82
207 220 218 189 182 179 174 172 166 170 168 166 165 159 155 156 179 179 164 156 159 160 164 167 177 166 122 104 103 112 52 39 52 107 128 141 161 159
214 202 202 195 181 176 174 169 167 164 164 165 156 158 156 167 185 174 162 158 160 162 162 145 132 135 137 138 139 127 119 102 59 72 69 93 181 150
206 201 200 189 181 174 170 169 162 164 162 162 158 157 166 169 187 171 161 152 159 159 154 142 140 144 140 133 132 140 133 139 149 103 42 18 37 87